THORAD DELTA 1 DEB, 42620

Orbit data source: Space-Track

THORAD DELTA 1 DEB, 42620 is space debris in SSO originally from a launch on Fri, 15 Nov 1974 UTC launched from the Air Force Western Test Range (AFWTR). Debris objects in space refer to the collection of defunct objects orbiting the Earth. Examples of debris include non-operational satellites, rocket bodies, and fragments generated from explosions, collisions, or faulty payload assembly.

Loading next visibility...
Identifier
42620, 1974-089GM
Orbit
SSO
Country
Flag of USUS
Related business
Manufacturer
Unknown
Mission
Spacecraft
Bus & Motor
Unknown
Mass
Unknown
Launch date (UTC)
1974-11-15 (51 years ago)
Launch vehicle
Unknown
Launch site
Air Force Western Test Range (AFWTR)
Object type
Payload
Rocket body
Debris
Shape & HBR
Unknown shape, 1.1 m
Radar Cross Section
Small (<0.1 m²)

Expand to show TLE details & history
Last TLE update: 3 days ago

TLE from 3 days ago
0 THORAD DELTA 1 DEB
1 42620U 74089GM  25284.44295069  .00000037  00000-0  67912-3 0  9990
2 42620 101.0962 269.7108 0146150 248.9957 109.5412 12.23204846516386
Epoch: 2025-10-11T10:37Z
TLE epoch observation values (Epoch: 2025-10-11T10:37:50.939Z)
Latitude
-0.00005°
Longitude
89.9742°
Altitude
1,621.574 km
Speed
7.042 km/s
True Right ascension
17h 58m 50s
True Declination
0° 00' 00"
Sunlit
Object was in daylight at epoch
Visualization orbit readout
Latitude
Unknown
Longitude
Unknown
Altitude
Unknown
Speed
Unknown
Apparent Right ascension
Unknown
Apparent Declination
Unknown
Sunlit
N/A
Visualization observer readout
Local Sidereal Time
10:00:25
Azimuth
Unknown
Elevation
Unknown
Doppler factor
Unknown
Orbital elements
Apogee altitude
1,692.41 km
Perigee altitude
1,459.906 km
Semi-major axis
7,954.295 km
Eccentricity
0.01462
Inclination
101.0962°
RAAN
269.7108°
Arg. of periapsis
248.9957°
True anomaly
111.10971°
Mean anomaly
109.5412°
Eccentric anomaly
110.32643°
Mean motion
3.05943 °/min
Orbital period
117.67 mins
BSTAR
0.00067912
Loading maneuver chart data...
Computing Atmospheric mass density...

Documentation

Showing up to 5 results
|